Weather in Guni

Russia / Republic of Dagestan     43°01′49″N   46°41′57″E
temp.,
°C
wind,
m/s
gust,
m/s
humid.,
%
clouds,
%
prec.,
mm/h
press.,
hPa
HPBL,
m
21 june, mon
mon2100:00+21s22570 0.0 101216
03:00+20ssw22510 0.0 101313
06:00+22ssw22490 0.0 101246
09:00+27e23360 0.0 1012730
12:00+31e55310 0.0 10111162
15:00+30ese56340 0.0 1010784
18:00+26se45480 0.0 1009188
21:00+23s33540 0.0 101135
22 june, tue
tue2200:00+22s11580 0.0 101112
03:00+20ssw11560 0.0 101211
06:00+22sse12522 0.0 101272
09:00+27ese34330 0.0 1011746
12:00+31ese55240 0.0 10101161
15:00+31ese66250 0.0 10091041
18:00+27se34390 0.0 1009149
21:00+23s22440 0.0 101119
23 june, wed
wed2300:00+22ssw22480 0.0 101116
03:00+20ssw22530 0.0 101313
06:00+22se12550 0.0 101485
09:00+27ese33371 0.0 1013831
12:00+30ese44270 0.0 10121271
15:00+30e33310 0.0 1011822
18:00+26ese23530 0.0 1012212
21:00+22sw22580 0.0 101419
24 june, thu
thu2400:00+21ssw22540 0.0 101412
03:00+20s22600 0.0 101313
06:00+22sse11610 0.0 101488
09:00+27ene23450 0.0 1013818
12:00+30ene32330 0.0 10121395
15:00+30e33290 0.0 10111215
18:00+26se33410 0.0 1013190
21:00+22wsw33470 0.0 101430
25 june, fri
fri2500:00+21ssw22520 0.0 101413
03:00+20s22540 0.0 101418
06:00+22s11565 0.0 101370
09:00+27ne224046 0.0 1012820
12:00+30ne22360 0.0 10111421
15:00+31ne33310 0.0 10101689
18:00+29e12400 0.0 101087
21:00+23wsw44440 0.0 101354